KC2G Weather Reports


time (UTC)temp
F
wind
direction
speed
knots
gust
knots
rain 1hr
in
rain 24hr
in
rain mn
in
humidity
%
barometer
mb
20260505223054 80 218 1.7 4.3 0.00 0.00 0.00 30 1005.7
20260505221554 80 218 1.7 4.3 0.00 0.00 0.00 30 1005.7
20260505220055 80 218 1.7 4.3 0.00 0.00 0.00 30 1005.7
20260505214554 81 219 1.7 5.2 0.00 0.00 0.00 30 1005.4
20260505213806 81 135 2.6 7.0 0.00 0.00 0.00 30 1005.2
20260505213055 81 241 1.7 7.0 0.00 0.00 0.00 31 1005.2
20260505211555 81 135 2.6 7.0 0.00 0.00 0.00 30 1005.2
20260505210055 82 204 1.7 3.5 0.00 0.00 0.00 28 1005.2
20260505204555 82 247 1.7 7.8 0.00 0.00 0.00 29 1005.3
20260505203202 82 197 1.7 4.3 0.00 0.00 0.00 31 1005.4
20260505203054 81 228 2.6 6.1 0.00 0.00 0.00 29 1005.5
20260505201923 82 197 1.7 4.3 0.00 0.00 0.00 31 1005.4
20260505201554 82 197 1.7 4.3 0.00 0.00 0.00 31 1005.4
20260505200151 82 219 2.6 5.2 0.00 0.00 0.00 31 1005.8
20260505200055 81 130 1.7 3.5 0.00 0.00 0.00 32 1005.5
20260505194650 81 186 2.6 7.8 0.00 0.00 0.00 32 1005.7
20260505194554 81 186 2.6 7.8 0.00 0.00 0.00 32 1005.7
20260505193055 82 219 2.6 5.2 0.00 0.00 0.00 31 1005.8
20260505191554 82 203 2.6 7.8 0.00 0.00 0.00 32 1006.1
20260505190055 82 238 1.7 3.5 0.00 0.00 0.00 33 1006.1
20260505184555 82 230 1.7 5.2 0.00 0.00 0.00 35 1006.4
20260505183055 82 185 1.7 2.6 0.00 0.00 0.00 34 1006.5
20260505181554 82 213 1.7 3.5 0.00 0.00 0.00 35 1006.7
20260505180055 81 201 2.6 6.1 0.00 0.00 0.00 37 1006.9
20260505174636 81 205 1.7 3.5 0.00 0.00 0.00 39 1007.0
20260505174554 81 205 1.7 3.5 0.00 0.00 0.00 39 1007.0
20260505173055 80 112 1.7 3.5 0.00 0.00 0.00 41 1007.3
20260505171554 80 90 2.6 5.2 0.00 0.00 0.00 42 1007.4
20260505170056 80 97 1.7 3.5 0.00 0.00 0.00 43 1007.7
20260505164717 79 228 1.7 3.5 0.00 0.00 0.00 44 1007.9
20260505164555 79 228 1.7 3.5 0.00 0.00 0.00 44 1007.9
20260505163055 78 104 1.7 2.6 0.00 0.00 0.00 45 1008.1
20260505161555 78 122 1.7 3.5 0.00 0.00 0.00 46 1008.3
20260505153055 76 163 1.7 3.5 0.00 0.00 0.00 48 1009.0
20260505151554 75 196 0.9 1.7 0.00 0.00 0.00 51 1009.1
20260505151347 73 186 2.6 5.2 0.00 0.00 0.00 54 1009.7
20260505124555 66 107 0.0 0.9 0.00 0.00 0.00 69 1010.1
20260505123357 58 132 0.9 1.7 0.00 0.00 0.00 83 1010.8
20260505123055 61 129 0.0 0.9 0.00 0.00 0.00 76 1010.4
20260505121555 58 132 0.9 1.7 0.00 0.00 0.00 83 1010.8
20260505120140 52 320 0.0 0.9 0.00 0.00 0.00 98 1010.4
20260505120055 55 169 0.0 1.7 0.00 0.00 0.00 89 1010.8
20260505114555 53 164 0.0 0.9 0.00 0.00 0.00 97 1010.7
20260505113055 52 320 0.0 0.9 0.00 0.00 0.00 98 1010.4
20260505111555 51 60 0.0 0.9 0.00 0.00 0.00 97 1011.1
20260505101555 48 351 0.0 0.9 0.00 0.00 0.00 99 1010.5
20260505100055 48 55 0.0 0.0 0.00 0.00 0.00 99 1010.4
20260505095351 49 0.0 0.0 0.00 0.00 0.00 97 1010.1
20260505094555 48 0.0 0.0 0.00 0.00 0.00 98 1010.2
20260505093159 49 0.0 0.0 0.00 0.00 0.00 97 1010.1
20260505093055 49 0.0 0.0 0.00 0.00 0.00 97 1010.1
20260505091555 49 116 0.0 0.9 0.00 0.00 0.00 97 1009.9
20260505090054 49 0.0 0.0 0.00 0.00 0.00 95 1009.9
20260505084554 50 0.0 0.0 0.00 0.00 0.00 95 1009.8
20260505083055 50 0.0 0.0 0.00 0.00 0.00 94 1009.8
20260505081554 50 0.0 0.0 0.00 0.00 0.00 93 1009.9
20260505080055 50 0.0 0.0 0.00 0.00 0.00 93 1009.9
20260505074659 50 0.0 0.0 0.00 0.00 0.00 91 1009.7
20260505074554 50 0.0 0.0 0.00 0.00 0.00 92 1009.8
20260505074534 50 0.0 0.0 0.00 0.00 0.00 91 1009.7
20260505073055 50 53 0.0 0.9 0.00 0.00 0.00 93 1009.7
20260505071555 50 0.0 0.0 0.00 0.00 0.00 91 1009.7
20260505071337 51 0.0 0.0 0.00 0.00 0.00 89 1009.7
20260505070056 50 0.0 0.0 0.00 0.00 0.00 90 1009.7
20260505064554 51 0.0 0.0 0.00 0.00 0.00 89 1009.7
20260505063055 51 0.0 0.0 0.00 0.00 0.00 88 1009.9
20260505061556 52 0.0 0.0 0.00 0.00 0.00 87 1009.9
20260505060055 52 317 0.0 0.0 0.00 0.00 0.00 85 1009.8
20260505054554 53 0.0 0.0 0.00 0.00 0.00 84 1009.8
20260505053055 53 0.0 0.0 0.00 0.00 0.00 81 1009.7
20260505051555 54 213 0.0 0.9 0.00 0.00 0.00 79 1009.8
20260505050546 55 0.0 0.0 0.00 0.00 0.00 77 1009.8
20260505041555 56 0.0 0.0 0.00 0.00 0.00 71 1009.7
20260505040129 57 39 0.0 0.0 0.00 0.00 0.00 65 1009.7
20260505040055 57 0.0 0.0 0.00 0.00 0.00 70 1009.7
20260505034555 57 0.0 0.0 0.00 0.00 0.00 68 1009.7
20260505033055 57 39 0.0 0.0 0.00 0.00 0.00 65 1009.7
20260505031555 57 0.0 0.0 0.00 0.00 0.00 65 1009.8
20260505030055 58 252 0.0 0.9 0.00 0.00 0.00 67 1009.7
20260505024555 58 0.0 0.0 0.00 0.00 0.00 63 1009.6
20260505023055 60 99 0.0 0.9 0.00 0.00 0.00 58 1009.6
20260505021815 60 84 0.0 1.7 0.00 0.00 0.00 56 1009.6
20260505021555 60 84 0.0 1.7 0.00 0.00 0.00 56 1009.6
20260505020055 61 110 0.0 0.9 0.00 0.00 0.00 51 1009.4
20260505014554 62 124 0.0 0.9 0.00 0.00 0.00 50 1009.3
20260505013055 63 140 0.0 0.9 0.00 0.00 0.00 48 1009.2
20260505011554 64 0.0 0.0 0.00 0.00 0.00 46 1009.0
20260505010055 64 189 0.0 0.9 0.00 0.00 0.00 45 1008.7
20260505004554 65 205 0.0 0.9 0.00 0.00 0.00 44 1008.5
20260505003144 65 220 0.0 0.9 0.00 0.00 0.00 43 1008.3
20260505003055 65 220 0.0 0.9 0.00 0.00 0.00 43 1008.3
20260505001723 68 150 0.9 1.7 0.00 0.00 0.00 39 1007.5
20260505001710 66 270 0.0 0.9 0.00 0.00 0.00 42 1007.9
20260505001554 66 270 0.0 0.9 0.00 0.00 0.00 42 1007.9
20260505000055 67 185 0.0 0.9 0.00 0.00 0.00 40 1007.7
20260504234940 68 150 0.9 1.7 0.00 0.00 0.00 39 1007.5
20260504234554 68 150 0.9 1.7 0.00 0.00 0.00 39 1007.5
20260504234525 69 156 1.7 4.3 0.00 0.00 0.00 37 1007.0
20260504233201 68 225 0.9 2.6 0.00 0.00 0.00 37 1007.3
20260504233055 68 225 0.9 2.6 0.00 0.00 0.00 37 1007.3
20260504231555 69 156 1.7 4.3 0.00 0.00 0.00 37 1007.0
20260504230056 69 123 1.7 4.3 0.00 0.00 0.00 36 1006.9
20260504224631 70 230 0.9 2.6 0.00 0.00 0.00 36 1006.9
20260504224555 70 230 0.9 2.6 0.00 0.00 0.00 36 1006.9